GW5124 Weather Reports


time (UTC)temp
C
wind
direction
speed
KPH
gust
KPH
rain 1hr
cm
rain 24hr
cm
rain mn
cm
humidity
%
barometer
mb
20260510104454 9 63 0.0 0.0 0.00 0.00 0.00 95 1015.0
20260510103951 8 63 0.0 0.0 0.00 0.00 0.00 95 1014.8
20260510103448 8 72 0.0 0.0 0.00 0.00 0.00 95 1014.8
20260510102943 8 74 0.0 3.2 0.00 0.00 0.00 95 1014.9
20260510102439 8 70 0.0 0.0 0.00 0.00 0.00 95 1014.7
20260510101936 8 70 0.0 0.0 0.00 0.00 0.00 95 1014.7
20260510101434 8 70 0.0 0.0 0.00 0.00 0.00 95 1014.6
20260510100932 8 34 0.0 0.0 0.00 0.00 0.00 95 1014.6
20260510100428 8 61 0.0 0.0 0.00 0.00 0.00 95 1014.6
20260510095924 8 34 0.0 0.0 0.00 0.00 0.00 95 1014.2
20260510095420 8 44 0.0 0.0 0.00 0.00 0.00 95 1014.3
20260510094919 8 50 0.0 0.0 0.00 0.00 0.00 95 1014.3
20260510094414 8 61 0.0 0.0 0.00 0.00 0.00 95 1014.2
20260510093911 8 35 0.0 0.0 0.00 0.00 0.00 95 1014.3
20260510093406 8 31 0.0 0.0 0.00 0.00 0.00 95 1014.3
20260510092904 8 38 0.0 0.0 0.00 0.00 0.00 95 1014.3
20260510092401 8 57 0.0 0.0 0.00 0.00 0.00 95 1014.3
20260510091900 8 72 0.0 0.0 0.00 0.00 0.00 96 1014.0
20260510091358 8 75 1.6 3.2 0.00 0.00 0.00 96 1014.1
20260510090855 8 72 0.0 0.0 0.00 0.00 0.00 97 1014.1
20260510090351 8 52 0.0 1.6 0.00 0.00 0.00 97 1014.0
20260510085847 8 28 0.0 0.0 0.00 0.00 0.00 97 1014.1
20260510085342 8 63 0.0 1.6 0.00 0.00 0.00 98 1014.0
20260510084838 8 31 0.0 0.0 0.00 0.00 0.00 98 1014.0
20260510084335 8 347 0.0 0.0 0.00 0.00 0.00 98 1014.0
20260510083831 8 96 0.0 0.0 0.00 0.00 0.00 98 1014.0
20260510083328 8 61 0.0 3.2 0.00 0.00 0.00 98 1013.8
20260510082824 8 50 0.0 0.0 0.00 0.00 0.00 98 1014.0
20260510082321 8 32 0.0 0.0 0.00 0.00 0.00 98 1013.9
20260510081820 8 86 0.0 0.0 0.00 0.00 0.00 99 1013.9
20260510081316 8 30 0.0 0.0 0.00 0.00 0.00 98 1013.9
20260510080812 8 30 0.0 0.0 0.00 0.00 0.00 98 1013.9
20260510080307 8 64 0.0 0.0 0.00 0.00 0.00 98 1013.9
20260510075805 8 11 0.0 0.0 0.00 0.00 0.00 98 1013.9
20260510075305 8 327 0.0 0.0 0.00 0.00 0.00 98 1013.7
20260510074759 8 29 0.0 0.0 0.00 0.00 0.00 98 1013.8
20260510074255 8 29 0.0 0.0 0.00 0.00 0.00 98 1013.8
20260510073752 8 57 0.0 0.0 0.00 0.00 0.00 98 1013.9
20260510073247 7 81 0.0 0.0 0.00 0.00 0.00 98 1013.7
20260510072743 7 17 0.0 0.0 0.00 0.00 0.00 98 1013.9
20260510072240 7 19 0.0 0.0 0.00 0.00 0.00 98 1013.7
20260510071737 7 12 0.0 0.0 0.00 0.00 0.00 98 1013.7
20260510071233 7 39 0.0 0.0 0.00 0.00 0.00 98 1013.5
20260510070732 8 45 0.0 0.0 0.00 0.00 0.00 98 1013.8
20260510070229 8 42 0.0 0.0 0.00 0.00 0.00 98 1013.5
20260510065723 8 46 0.0 0.0 0.00 0.00 0.00 98 1013.5
20260510065220 8 47 0.0 0.0 0.00 0.00 0.00 98 1013.7
20260510064717 8 47 0.0 0.0 0.00 0.00 0.00 98 1013.4
20260510064214 8 49 0.0 0.0 0.00 0.00 0.00 97 1013.7
20260510063711 8 49 0.0 0.0 0.00 0.00 0.00 97 1013.5
20260510063207 8 48 0.0 0.0 0.00 0.00 0.00 97 1013.5
20260510062704 8 50 0.0 0.0 0.00 0.00 0.00 97 1013.6
20260510062200 8 49 0.0 0.0 0.00 0.00 0.00 97 1013.8
20260510061654 8 51 0.0 0.0 0.00 0.00 0.00 97 1013.7
20260510061152 8 56 0.0 0.0 0.00 0.00 0.00 97 1013.7
20260510060648 8 62 0.0 0.0 0.00 0.00 0.00 97 1013.9
20260510060145 8 62 0.0 0.0 0.00 0.00 0.00 97 1013.9
20260510055641 8 62 0.0 0.0 0.00 0.00 0.00 97 1013.9
20260510055140 8 77 0.0 0.0 0.00 0.00 0.00 97 1013.7
20260510054635 8 77 0.0 0.0 0.00 0.00 0.00 96 1013.6
20260510054131 8 79 0.0 0.0 0.00 0.00 0.00 96 1013.7
20260510053630 8 79 0.0 0.0 0.00 0.00 0.00 96 1013.7
20260510053127 8 53 0.0 0.0 0.00 0.00 0.00 96 1013.9
20260510052623 8 53 0.0 0.0 0.00 0.00 0.00 96 1013.9
20260510052119 8 53 0.0 0.0 0.00 0.00 0.00 96 1013.7
20260510051614 8 54 0.0 0.0 0.00 0.00 0.00 95 1013.7
20260510051112 8 55 0.0 0.0 0.00 0.00 0.00 95 1013.8
20260510050609 8 55 0.0 0.0 0.00 0.00 0.00 95 1013.7
20260510050106 8 56 0.0 0.0 0.00 0.00 0.00 95 1013.9
20260510045603 8 61 0.0 0.0 0.00 0.00 0.00 94 1013.8
20260510045059 8 53 0.0 0.0 0.00 0.00 0.00 94 1013.8
20260510044555 8 54 0.0 0.0 0.00 0.00 0.00 94 1014.1
20260510044054 8 61 0.0 0.0 0.00 0.00 0.00 93 1014.1
20260510043549 8 62 0.0 0.0 0.00 0.00 0.00 93 1014.0
20260510043045 8 62 0.0 1.6 0.00 0.00 0.00 93 1014.0
20260510042544 8 37 0.0 0.0 0.00 0.00 0.00 92 1013.9
20260510042039 8 37 0.0 0.0 0.00 0.00 0.00 92 1013.9
20260510041537 9 49 0.0 0.0 0.00 0.00 0.00 90 1014.0
20260510041034 9 58 0.0 1.6 0.00 0.00 0.00 90 1013.8
20260510040531 9 10 0.0 1.6 0.00 0.00 0.00 90 1014.0
20260510040027 9 23 0.0 0.0 0.00 0.00 0.00 90 1013.8
20260510035523 9 59 0.0 0.0 0.00 0.00 0.00 89 1013.7
20260510035023 9 96 1.6 1.6 0.00 0.00 0.00 89 1013.7
20260510034521 9 65 0.0 3.2 0.00 0.00 0.00 89 1013.7
20260510034017 9 112 0.0 0.0 0.00 0.00 0.00 90 1013.7
20260510033513 9 86 0.0 0.0 0.00 0.00 0.00 91 1013.7
20260510033012 9 17 0.0 0.0 0.00 0.00 0.00 90 1013.7
20260510032508 9 17 0.0 0.0 0.00 0.00 0.00 89 1013.7
20260510032008 10 17 0.0 0.0 0.00 0.00 0.00 88 1013.8
20260510031504 10 17 0.0 0.0 0.00 0.00 0.00 88 1013.8
20260510031000 10 108 0.0 0.0 0.00 0.00 0.00 88 1013.6
20260510030455 10 95 0.0 0.0 0.00 0.00 0.00 88 1013.6
20260510025953 10 91 0.0 0.0 0.00 0.00 0.00 88 1013.6
20260510025450 10 91 0.0 0.0 0.00 0.00 0.00 88 1013.6
20260510024947 9 102 0.0 0.0 0.00 0.00 0.00 89 1013.6
20260510024444 9 102 0.0 0.0 0.00 0.00 0.00 90 1013.4
20260510023939 9 142 0.0 0.0 0.00 0.00 0.00 90 1013.7
20260510023436 9 142 0.0 0.0 0.00 0.00 0.00 90 1013.4
20260510022933 9 142 0.0 0.0 0.00 0.00 0.00 89 1013.5
20260510022432 9 142 0.0 0.0 0.00 0.00 0.00 90 1013.5
20260510021931 9 142 0.0 0.0 0.00 0.00 0.00 90 1013.4
20260510021430 9 142 0.0 0.0 0.00 0.00 0.00 90 1013.3
20260510020927 9 142 0.0 0.0 0.00 0.00 0.00 90 1013.4
20260510020427 9 142 0.0 0.0 0.00 0.00 0.00 90 1013.4
20260510015923 9 142 0.0 0.0 0.00 0.00 0.00 89 1013.2
20260510015419 9 142 0.0 0.0 0.00 0.00 0.00 89 1013.2
20260510014914 9 142 0.0 0.0 0.00 0.00 0.00 88 1012.9
20260510014412 10 142 0.0 0.0 0.00 0.00 0.00 88 1013.0
20260510013908 10 142 0.0 0.0 0.00 0.00 0.00 87 1012.7
20260510013403 10 142 0.0 0.0 0.00 0.00 0.00 87 1012.7
20260510012858 10 142 0.0 0.0 0.00 0.00 0.00 87 1012.7
20260510012353 10 142 0.0 0.0 0.00 0.00 0.00 87 1012.5
20260510011848 10 142 0.0 0.0 0.00 0.00 0.00 87 1012.4
20260510011344 10 142 0.0 0.0 0.00 0.00 0.00 86 1012.5
20260510010840 10 142 0.0 0.0 0.00 0.00 0.00 87 1012.4
20260510010338 10 142 0.0 0.0 0.00 0.00 0.00 86 1012.3
20260510005834 10 142 0.0 0.0 0.00 0.00 0.00 84 1012.4
20260510005330 10 142 0.0 0.0 0.00 0.00 0.00 83 1012.1
20260510004828 11 142 0.0 0.0 0.00 0.00 0.00 82 1012.1
20260510004326 11 142 0.0 0.0 0.00 0.00 0.00 81 1011.9
20260510003823 11 142 0.0 0.0 0.00 0.00 0.00 80 1012.1
20260510003320 11 144 0.0 0.0 0.00 0.00 0.00 79 1011.9
20260510002819 11 143 0.0 0.0 0.00 0.00 0.00 78 1012.0
20260510002316 12 143 0.0 0.0 0.00 0.00 0.00 76 1011.6
20260510001812 12 143 0.0 0.0 0.00 0.00 0.00 74 1011.6
20260510001311 13 154 0.0 0.0 0.00 0.00 0.00 73 1011.6
20260510000806 14 154 0.0 0.0 0.00 0.00 0.00 70 1011.6
20260510000305 14 171 0.0 1.6 0.00 0.00 0.00 67 1011.9
20260509235801 14 152 0.0 3.2 0.00 0.00 0.00 67 1011.5
20260509235257 15 153 1.6 3.2 0.00 0.00 0.00 66 1011.6
20260509234753 15 176 3.2 4.8 0.00 0.00 0.00 64 1011.5
20260509234250 15 169 1.6 4.8 0.00 0.00 0.00 62 1011.3
20260509233749 15 182 0.0 3.2 0.00 0.00 0.00 63 1011.3
20260509233246 15 188 3.2 4.8 0.00 0.00 0.00 62 1011.3
20260509232741 15 192 1.6 3.2 0.00 0.00 0.00 62 1011.3
20260509232239 15 177 6.4 9.7 0.00 0.00 0.00 60 1011.2
20260509231735 16 220 3.2 6.4 0.00 0.00 0.00 60 1011.3
20260509231232 16 164 4.8 6.4 0.00 0.00 0.00 59 1011.2
20260509230730 16 162 3.2 4.8 0.00 0.00 0.00 59 1011.1
20260509230227 16 177 1.6 4.8 0.00 0.00 0.00 60 1011.3
20260509225722 16 189 1.6 9.7 0.00 0.00 0.00 59 1011.4
20260509225218 16 140 6.4 9.7 0.00 0.00 0.00 58 1011.5
20260509224714 16 256 3.2 4.8 0.00 0.00 0.00 58 1011.3
20260509224211 16 195 3.2 6.4 0.00 0.00 0.00 57 1011.4
20260509223708 17 159 6.4 11.3 0.00 0.00 0.00 55 1011.6
20260509223205 16 159 3.2 4.8 0.00 0.00 0.00 56 1011.7
20260509222702 16 182 3.2 4.8 0.00 0.00 0.00 55 1011.6
20260509222157 16 236 1.6 6.4 0.00 0.00 0.00 56 1011.7
20260509221653 17 186 4.8 6.4 0.00 0.00 0.00 55 1011.6
20260509221149 16 185 6.4 12.9 0.00 0.00 0.00 54 1011.6
20260509220645 17 126 6.4 11.3 0.00 0.00 0.00 53 1011.6
20260509220141 16 168 1.6 12.9 0.00 0.00 0.00 54 1011.4
20260509215638 16 186 3.2 11.3 0.00 0.00 0.00 54 1011.7
20260509215135 16 175 8.0 9.7 0.00 0.00 0.00 53 1011.5
20260509214632 16 180 4.8 6.4 0.00 0.00 0.00 53 1011.6
20260509214128 16 177 4.8 9.7 0.00 0.00 0.00 52 1011.5
20260509213625 16 190 3.2 6.4 0.00 0.00 0.00 52 1011.6
20260509213121 16 172 4.8 6.4 0.00 0.00 0.00 52 1011.6
20260509212619 16 195 0.0 6.4 0.00 0.00 0.00 52 1011.4
20260509212116 16 203 6.4 9.7 0.00 0.00 0.00 51 1011.5
20260509211611 16 193 3.2 11.3 0.00 0.00 0.00 50 1011.4
20260509211108 16 187 3.2 3.2 0.00 0.00 0.00 49 1011.4
20260509210605 16 197 1.6 4.8 0.00 0.00 0.00 48 1011.4
20260509205602 16 178 4.8 6.4 0.00 0.00 0.00 48 1011.2
20260509205056 16 161 1.6 4.8 0.00 0.00 0.00 49 1011.1
20260509204553 16 187 3.2 3.2 0.00 0.00 0.00 48 1011.2
20260509204050 16 229 0.0 6.4 0.00 0.00 0.00 47 1011.3
20260509203546 17 185 6.4 9.7 0.00 0.00 0.00 46 1011.2
20260509203045 17 182 1.6 3.2 0.00 0.00 0.00 46 1011.0
20260509202544 18 208 3.2 11.3 0.00 0.00 0.00 44 1010.9
20260509202040 16 171 6.4 9.7 0.00 0.00 0.00 44 1010.9
20260509201536 16 190 6.4 6.4 0.00 0.00 0.00 43 1010.8
20260509201034 17 233 4.8 12.9 0.00 0.00 0.00 43 1010.9
20260509200533 18 193 6.4 14.5 0.00 0.00 0.00 43 1010.8
20260509200030 17 132 4.8 11.3 0.00 0.00 0.00 44 1010.9
20260509195525 17 189 4.8 9.7 0.00 0.00 0.00 43 1010.7
20260509195025 16 158 3.2 12.9 0.00 0.00 0.00 45 1010.9
20260509194520 17 217 4.8 12.9 0.00 0.00 0.00 45 1010.8
20260509194018 17 187 3.2 4.8 0.00 0.00 0.00 44 1010.9
20260509193518 17 216 0.0 9.7 0.00 0.00 0.00 43 1010.9
20260509193015 17 181 3.2 4.8 0.00 0.00 0.00 42 1011.0
20260509192512 17 227 3.2 12.9 0.00 0.00 0.00 43 1011.1
20260509192007 18 226 6.4 9.7 0.00 0.00 0.00 43 1010.9
20260509191502 18 178 8.0 12.9 0.00 0.00 0.00 43 1010.9
20260509190957 18 193 4.8 11.3 0.00 0.00 0.00 42 1010.8
20260509190455 18 206 9.7 14.5 0.00 0.00 0.00 36 1010.8
20260509185953 18 141 4.8 11.3 0.00 0.00 0.00 39 1010.7
20260509185449 18 217 4.8 4.8 0.00 0.00 0.00 40 1010.7
20260509184947 17 220 6.4 12.9 0.00 0.00 0.00 42 1010.7
20260509184445 18 278 3.2 11.3 0.00 0.00 0.00 42 1010.7
20260509183941 18 193 8.0 14.5 0.00 0.00 0.00 41 1010.7
20260509183440 18 184 4.8 16.1 0.00 0.00 0.00 40 1010.8
20260509182937 17 40 1.6 9.7 0.00 0.00 0.00 47 1010.8
20260509182433 17 173 9.7 12.9 0.00 0.00 0.00 39 1010.9
20260509181931 17 228 4.8 12.9 0.00 0.00 0.00 43 1010.9
20260509181429 17 85 0.0 6.4 0.00 0.00 0.00 43 1010.9
20260509180926 17 228 1.6 6.4 0.00 0.00 0.00 38 1011.0
20260509180421 17 229 3.2 11.3 0.00 0.00 0.00 37 1010.7
20260509175919 16 207 3.2 6.4 0.00 0.00 0.00 37 1010.7
20260509175414 16 168 3.2 9.7 0.00 0.00 0.00 41 1011.0
20260509174911 16 216 3.2 6.4 0.00 0.00 0.00 46 1011.0
20260509174407 16 216 3.2 6.4 0.00 0.00 0.00 51 1010.9
20260509173904 16 206 3.2 6.4 0.00 0.00 0.00 55 1010.8
20260509173403 16 165 4.8 12.9 0.00 0.00 0.00 58 1010.9
20260509172900 16 277 1.6 11.3 0.00 0.00 0.00 56 1010.8
20260509172357 15 178 3.2 6.4 0.00 0.00 0.00 59 1011.0
20260509171853 16 190 8.0 11.3 0.00 0.00 0.00 60 1011.2
20260509171349 16 185 4.8 6.4 0.00 0.00 0.00 60 1011.2
20260509170845 16 192 3.2 4.8 0.00 0.00 0.00 60 1011.0
20260509170341 15 73 6.4 9.7 0.00 0.00 0.00 60 1011.3
20260509165836 15 211 6.4 6.4 0.00 0.00 0.00 62 1011.2
20260509165331 15 159 1.6 4.8 0.00 0.00 0.00 63 1011.5
20260509164827 15 196 1.6 6.4 0.00 0.00 0.00 64 1011.4
20260509164323 15 201 3.2 4.8 0.00 0.00 0.00 64 1011.4
20260509163819 14 194 3.2 4.8 0.00 0.00 0.00 64 1011.5
20260509163316 15 146 6.4 9.7 0.00 0.00 0.00 64 1011.4
20260509162815 15 236 3.2 6.4 0.00 0.00 0.00 65 1011.5
20260509162308 14 166 3.2 6.4 0.00 0.00 0.00 64 1011.3
20260509161805 15 179 4.8 4.8 0.00 0.00 0.00 64 1011.2
20260509161301 14 176 3.2 4.8 0.00 0.00 0.00 66 1011.1
20260509160756 14 204 4.8 9.7 0.00 0.00 0.00 66 1011.1
20260509160253 14 180 6.4 6.4 0.00 0.00 0.00 65 1011.1
20260509155748 14 188 3.2 3.2 0.00 0.00 0.00 67 1011.2
20260509155245 13 165 0.0 6.4 0.00 0.00 0.00 68 1011.4
20260509154741 13 242 4.8 9.7 0.00 0.00 0.00 68 1011.3
20260509154238 13 167 6.4 9.7 0.00 0.00 0.00 68 1011.3
20260509153735 13 277 1.6 6.4 0.00 0.00 0.00 70 1011.5
20260509153231 13 276 1.6 6.4 0.00 0.00 0.00 70 1011.3
20260509152728 13 184 4.8 4.8 0.00 0.00 0.00 67 1011.5
20260509152224 14 212 0.0 4.8 0.00 0.00 0.00 67 1011.3
20260509151721 14 198 4.8 6.4 0.00 0.00 0.00 66 1011.3
20260509151218 14 188 3.2 11.3 0.00 0.00 0.00 69 1011.2
20260509150716 13 267 1.6 6.4 0.00 0.00 0.00 68 1011.3
20260509150214 13 200 3.2 12.9 0.00 0.00 0.00 67 1011.4
20260509145710 14 197 3.2 9.7 0.00 0.00 0.00 66 1011.5
20260509145205 14 191 6.4 12.9 0.00 0.00 0.00 67 1011.5
20260509144702 14 211 6.4 9.7 0.00 0.00 0.00 67 1011.4
20260509144159 13 153 4.8 9.7 0.00 0.00 0.00 67 1011.2
20260509143656 13 216 3.2 9.7 0.00 0.00 0.00 66 1011.3
20260509143154 13 207 0.0 6.4 0.00 0.00 0.00 67 1011.0
20260509142649 13 197 1.6 4.8 0.00 0.00 0.00 66 1011.1
20260509142146 13 142 1.6 6.4 0.00 0.00 0.00 66 1011.4
20260509141642 13 206 3.2 11.3 0.00 0.00 0.00 65 1011.2
20260509141138 13 181 6.4 6.4 0.00 0.00 0.00 65 1011.1
20260509140635 14 179 4.8 11.3 0.00 0.00 0.00 64 1011.2
20260509140133 14 184 3.2 9.7 0.00 0.00 0.00 63 1011.0
20260509135630 15 231 1.6 11.3 0.00 0.00 0.00 63 1011.0
20260509135128 15 162 6.4 6.4 0.00 0.00 0.00 61 1011.0
20260509134624 15 160 4.8 9.7 0.00 0.00 0.00 61 1010.8
20260509134122 14 184 6.4 9.7 0.00 0.00 0.00 62 1011.0
20260509133619 14 201 8.0 12.9 0.00 0.00 0.00 63 1010.9
20260509133116 13 173 6.4 12.9 0.00 0.00 0.00 64 1010.8
20260509132614 13 192 1.6 9.7 0.00 0.00 0.00 65 1010.8
20260509132113 13 227 1.6 4.8 0.00 0.00 0.00 66 1010.8
20260509131608 13 215 1.6 6.4 0.00 0.00 0.00 66 1010.9
20260509131106 13 212 1.6 1.6 0.00 0.00 0.00 66 1011.0
20260509130601 13 181 1.6 6.4 0.00 0.00 0.00 65 1011.3
20260509130058 13 223 3.2 4.8 0.00 0.00 0.00 65 1011.2
20260509125554 13 183 1.6 1.6 0.00 0.00 0.00 65 1011.4
20260509125051 13 252 4.8 4.8 0.00 0.00 0.00 65 1011.3
20260509124547 12 189 3.2 6.4 0.00 0.00 0.00 66 1011.3
20260509124045 12 217 0.0 3.2 0.00 0.00 0.00 67 1011.3
20260509123543 12 272 3.2 3.2 0.00 0.00 0.00 67 1011.1
20260509123039 12 218 0.0 3.2 0.00 0.00 0.00 68 1011.3
20260509122535 11 173 0.0 1.6 0.00 0.00 0.00 69 1011.4
20260509122032 11 167 0.0 1.6 0.00 0.00 0.00 70 1011.4
20260509121529 11 110 1.6 4.8 0.00 0.00 0.00 69 1011.5
20260509121027 11 199 1.6 1.6 0.00 0.00 0.00 69 1011.5
20260509120525 11 51 1.6 4.8 0.00 0.00 0.00 69 1011.5
20260509120023 11 145 0.0 0.0 0.00 0.00 0.00 70 1011.5
20260509115519 11 238 0.0 0.0 0.00 0.00 0.00 70 1011.5
20260509115017 11 322 0.0 0.0 0.00 0.00 0.00 71 1011.7
20260509114515 10 12 0.0 0.0 0.00 0.00 0.00 75 1011.4
20260509114014 10 12 0.0 0.0 0.00 0.00 0.00 77 1011.5
20260509113512 10 12 0.0 0.0 0.00 0.00 0.00 76 1011.3
20260509113009 10 14 0.0 0.0 0.00 0.00 0.00 77 1011.4
20260509112505 9 14 0.0 0.0 0.00 0.00 0.00 78 1011.4
20260509112002 9 76 0.0 0.0 0.00 0.00 0.00 79 1011.2
20260509111459 9 45 0.0 0.0 0.00 0.00 0.00 78 1011.3
20260509110957 9 45 0.0 0.0 0.00 0.00 0.00 78 1011.4
20260509110453 9 65 0.0 0.0 0.00 0.00 0.00 78 1011.2
20260509105950 9 65 0.0 0.0 0.00 0.00 0.00 77 1011.3
20260509105449 9 33 0.0 0.0 0.00 0.00 0.00 77 1011.3
20260509104945 9 86 0.0 1.6 0.00 0.00 0.00 77 1011.3